sat.trackr.live / text

‹ back to catalog

KUIPER-00631

NORAD 69784 · 2026-151X

PAYLOAD ACTIVE UNKNOWN

§ Identity

Operator
Country
US
Launch date
2026-07-02
Launch site
AFETR
Launch vehicle
Mass (kg)
RCS (m²)

External: N2YO · Heavens-Above · Gunter

§ Orbital elements

Epoch: 2026-09-19T22:13:30.923904Z

Period
97.30 min
Inclination
51.8993°
Eccentricity
0.0000837
Mean motion
14.79940964 rev/d
Perigee alt
628.9 km
Apogee alt
630.1 km
Semi-major
7,007.6 km
B*
-2.7435e-4
RAAN
239.2297°
Arg perigee
116.2928°
Mean anomaly
243.8120°
Rev number
1,198

§ Raw data

KUIPER-006311 69784U 26151X   26262.92605236 -.00002312  00000+0 -27435-3 0  99932 69784  51.8993 239.2297 0000837 116.2928 243.8120 14.79940964 11984

JSON: /api/v1/satellites/69784 · /tle

For live sub-satellite position, see the globe view (requires WebGL).

§ Visibility from observer

Set your observer location to see the next 7 days of passes ≥ 10°. The values pass through the URL so the page stays shareable.

No JS? Fill the form by hand. The geolocation button needs JavaScript.